[[{"header":{"parameterUnit":"m.s-1","parameterCategory":1,"la1":30.2991,"la2":30.254,"lo1":-89.0895,"lo2":-89.0444,"dy":0.0017,"dx":0.0017,"nx":28,"ny":28,"refTime":"2024-08-02T03:00:00:Z","depth":0,"parameterNumber":2,"parameterNumberName":"U-component_of_WINDS"},"data":[0,0,0,0,0,0,0,0,0,0,0,0,0,0,0,0,0,0,0,0,0,0,0,0,0,0,0,0,0,0,0,0,0,0,0,0,0,0,0,0,0,0,0,0,0,0,0,0,0,0,0,0,0,0,0,0,0,0,-0.8317,-0.8317,0,-0.8335,-0.8335,-0.8336,-0.8346,-0.8346,-0.8346,-0.8346,-0.8366,-0.8367,-0.8367,0,0,0,0,0,0,0,0,0,0,0,0,0,-0.8293,-0.8293,-0.8317,-0.8317,-0.8317,-0.8335,-0.8335,-0.8336,-0.8346,-0.8346,-0.8346,-0.8346,-0.8366,-0.8367,-0.8367,0,0,0,0,0,0,0,0,0,0,0,0,0,-0.8306,-0.8293,-0.8317,-0.8325,-0.8326,-0.8335,-0.8335,-0.8336,-0.8346,-0.8346,-0.8346,-0.8346,-0.8366,-0.8367,-0.8368,-0.8371,0,0,-0.837,-0.837,0,0,0,0,0,0,0,0,-0.8305,-0.8307,-0.8323,-0.8324,-0.8325,-0.8338,-0.8334,-0.8348,-0.8346,-0.8338,-0.8346,-0.8346,-0.8357,-0.8359,-0.8362,-0.8372,-0.8373,-0.837,-0.837,-0.8371,-0.8371,0,0,0,0,0,0,0,-0.8305,-0.8306,-0.8324,-0.8324,-0.8325,-0.8328,-0.833,-0.8337,-0.8347,-0.8339,-0.834,-0.8342,-0.8358,-0.8361,-0.8363,-0.8373,-0.837,-0.8371,-0.8371,-0.8371,-0.8387,-0.8387,0,0,0,0,0,0,-0.8302,-0.8306,-0.8324,-0.8325,-0.8315,-0.8328,-0.833,-0.8334,-0.8347,-0.8349,-0.8342,-0.8342,-0.836,-0.8362,-0.8363,-0.8368,-0.8371,-0.8371,-0.8372,-0.8387,-0.8387,-0.8387,0,0,0,0,0,0,-0.8302,-0.8304,-0.8323,-0.8315,-0.8318,-0.8329,-0.8333,-0.8335,-0.8338,-0.8349,-0.8351,-0.8343,-0.836,-0.8362,-0.8369,-0.8369,-0.8372,-0.8372,-0.8387,-0.8387,-0.8387,-0.8378,0,0,0,0,0,0,-0.8301,-0.8303,-0.8304,-0.8315,-0.8318,-0.8328,-0.8333,-0.8335,-0.8339,-0.834,-0.8351,-0.8353,-0.836,-0.8368,-0.837,-0.837,-0.8373,-0.8387,-0.8387,-0.8387,-0.8379,-0.8378,-0.8377,0,0,0,0,0,-0.83,-0.8301,-0.8304,-0.8307,-0.832,-0.8328,-0.833,-0.8337,-0.8339,-0.8341,-0.8348,-0.8353,-0.8369,-0.8368,-0.8371,-0.8371,-0.8387,-0.8387,-0.8387,-0.8379,-0.8378,-0.8377,0,0,0,0,0,0,-0.8291,-0.8303,-0.8306,-0.8311,-0.8318,-0.8329,-0.8331,-0.8336,-0.8343,-0.8344,-0.8353,-0.8356,-0.8362,-0.8367,-0.8367,-0.8376,-0.8379,-0.8379,-0.8372,-0.8371,-0.837,-0.8369,-0.8374,0,0,0,0,0,-0.8289,-0.8294,-0.8305,-0.8308,-0.8311,-0.8321,-0.8324,-0.833,-0.8338,-0.8341,-0.8348,-0.8356,-0.8363,-0.8367,-0.8374,-0.838,-0.8383,-0.8381,-0.8381,-0.838,-0.838,-0.8384,-0.8384,-0.8387,-0.8387,-0.8387,0,0,-0.8286,-0.8293,-0.8296,-0.8306,-0.8312,-0.8318,-0.8323,-0.8329,-0.8333,-0.8342,-0.8348,-0.8354,-0.8364,-0.837,-0.8373,-0.8375,-0.838,-0.838,-0.838,-0.838,-0.8384,-0.8384,-0.8383,-0.8387,-0.8387,-0.8387,0,0,-0.8283,-0.8289,-0.8293,-0.8299,-0.8308,-0.8314,-0.8315,-0.8325,-0.8329,-0.8336,-0.8343,-0.8349,-0.836,-0.8366,-0.8371,-0.8371,-0.8376,-0.8373,-0.837,-0.8373,-0.8373,-0.8373,-0.8373,-0.8373,-0.8374,-0.8373,-0.8373,0,-0.8279,-0.8286,-0.8294,-0.8299,-0.8303,-0.8312,-0.8315,-0.8321,-0.8332,-0.8335,-0.8337,-0.8352,-0.8359,-0.8366,-0.8366,-0.837,-0.8372,-0.8372,-0.8373,-0.8372,-0.8372,-0.8373,-0.8373,-0.8373,-0.8373,-0.8373,-0.8373,0,-0.828,-0.8285,-0.8287,-0.8297,-0.8302,-0.8306,-0.8315,-0.8319,-0.8324,-0.833,-0.8338,-0.8346,-0.8355,-0.8357,-0.8362,-0.8366,-0.8367,-0.8371,-0.8374,-0.8372,-0.8372,-0.8372,-0.8372,-0.8373,-0.8373,-0.8373,0,0,-0.8272,-0.8286,-0.8286,-0.8291,-0.8302,-0.8306,-0.8311,-0.8319,-0.8323,-0.833,-0.8335,-0.8344,-0.8348,-0.8353,-0.8359,-0.8362,-0.8362,-0.8366,-0.8366,-0.8365,-0.8367,-0.8364,-0.8364,-0.8366,-0.8366,-0.8366,-0.8366,0,-0.827,-0.8279,-0.8286,-0.8292,-0.8298,-0.8306,-0.831,-0.8317,-0.8323,-0.8329,-0.8336,-0.8343,-0.8347,-0.835,-0.8354,-0.8361,-0.8363,-0.8361,-0.8371,-0.8371,-0.8368,-0.8364,-0.8361,-0.8361,-0.8367,-0.8367,-0.8367,0,-0.827,-0.8276,-0.8283,-0.8293,-0.8296,-0.8299,-0.8308,-0.8313,-0.8322,-0.8326,-0.8332,-0.8338,-0.8345,-0.8347,-0.8357,-0.8356,-0.836,-0.8364,-0.8365,-0.8366,-0.8368,-0.8365,-0.8362,-0.8362,-0.8367,-0.8367,-0.8367,0,-0.8263,-0.8274,-0.8279,-0.8283,-0.8295,-0.8297,-0.8302,-0.8311,-0.8316,-0.8323,-0.8326,-0.8335,-0.8339,-0.8346,-0.8355,-0.8356,-0.8363,-0.8367,-0.8367,-0.8367,-0.8368,-0.8368,-0.8365,-0.8371,-0.8371,-0.8371,-0.8371,0,-0.8261,-0.8264,-0.8276,-0.8279,-0.8284,-0.8293,-0.8297,-0.8303,-0.8311,-0.8316,-0.8324,-0.8328,-0.8339,-0.8346,-0.8353,-0.8359,-0.8362,-0.8366,-0.8367,-0.8365,-0.8364,-0.8368,-0.8368,-0.8371,-0.8371,-0.8371,-0.8371,0,-0.8254,-0.8262,-0.8268,-0.8279,-0.8282,-0.8284,-0.8294,-0.8298,-0.8305,-0.8311,-0.8313,-0.8324,-0.8331,-0.8341,-0.8352,-0.8357,-0.8363,-0.8365,-0.8359,-0.8361,-0.8361,-0.8361,-0.836,-0.836,-0.8366,-0.8366,-0.8366,0,-0.8252,-0.8255,-0.8266,-0.8269,-0.8274,-0.828,-0.8285,-0.8294,-0.8298,-0.8308,-0.8311,-0.8319,-0.8327,-0.8339,-0.8348,-0.8357,-0.836,-0.8359,-0.8361,-0.8359,-0.836,-0.836,-0.836,-0.8358,-0.8358,-0.8358,-0.8358,0,-0.8247,-0.8251,-0.8257,-0.8264,-0.8269,-0.8276,-0.8283,-0.8286,-0.8296,-0.8301,-0.8309,-0.8314,-0.8325,-0.8334,-0.8344,-0.835,-0.8356,-0.8357,-0.8358,-0.8355,-0.8352,-0.8354,-0.8358,-0.8357,-0.8357,-0.8357,-0.8357,-0.8357,-0.8242,-0.8245,-0.8254,-0.826,-0.8266,-0.8273,-0.8277,-0.8284,-0.829,-0.8299,-0.8305,-0.8312,-0.8322,-0.8336,-0.8342,-0.8348,-0.8351,-0.8351,-0.8352,-0.8352,-0.8351,-0.8351,-0.835,-0.835,-0.835,-0.835,-0.8351,0,-0.8238,-0.8244,-0.825,-0.8259,-0.8264,-0.8269,-0.8277,-0.8281,-0.8288,-0.8296,-0.8302,-0.8312,-0.832,-0.833,-0.8339,-0.8343,-0.8346,-0.8345,-0.8345,-0.8346,-0.8349,-0.8347,-0.8342,-0.8342,-0.8342,-0.8342,-0.8342,-0.8342,-0.8237,-0.8242,-0.8247,-0.8256,-0.8261,-0.8268,-0.8273,-0.8279,-0.8285,-0.8295,-0.8302,-0.8308,-0.8317,-0.8327,-0.8335,-0.8338,-0.8341,-0.8339,-0.8343,-0.8345,-0.8346,-0.8346,-0.8345,-0.834,-0.834,-0.834,-0.834,-0.834]},{"header":{"parameterUnit":"m.s-1","parameterCategory":1,"la1":30.2991,"la2":30.254,"lo1":-89.0895,"lo2":-89.0444,"dy":0.0017,"dx":0.0017,"nx":28,"ny":28,"refTime":"2024-08-02T03:00:00:Z","depth":0,"parameterNumber":3,"parameterNumberName":"V-component_of_WINDS"},"data":[0,0,0,0,0,0,0,0,0,0,0,0,0,0,0,0,0,0,0,0,0,0,0,0,0,0,0,0,0,0,0,0,0,0,0,0,0,0,0,0,0,0,0,0,0,0,0,0,0,0,0,0,0,0,0,0,0,0,4.4005,4.4007,0,4.4184,4.4186,4.4188,4.4183,4.418,4.4178,4.4175,4.435,4.4356,4.4363,0,0,0,0,0,0,0,0,0,0,0,0,0,4.3647,4.3654,4.4005,4.4007,4.4009,4.4184,4.4186,4.4189,4.4183,4.418,4.4177,4.4174,4.4347,4.4355,4.4364,0,0,0,0,0,0,0,0,0,0,0,0,0,4.3812,4.3656,4.4004,4.4028,4.4032,4.4184,4.4187,4.419,4.4184,4.418,4.4176,4.4173,4.4345,4.4355,4.4365,4.4502,0,0,4.4397,4.4401,0,0,0,0,0,0,0,0,4.3802,4.3825,4.4022,4.4026,4.4031,4.4158,4.4124,4.4294,4.4185,4.4126,4.4175,4.4171,4.4288,4.4303,4.4344,4.4511,4.4518,4.4398,4.4404,4.4408,4.4411,0,0,0,0,0,0,0,4.3791,4.3817,4.4075,4.4025,4.403,4.4026,4.4045,4.4156,4.4225,4.4131,4.4131,4.4152,4.429,4.4334,4.4348,4.4521,4.4397,4.4406,4.4413,4.4417,4.4807,4.4811,0,0,0,0,0,0,4.3776,4.3808,4.407,4.4081,4.3906,4.4035,4.4057,4.412,4.4224,4.4236,4.4155,4.4152,4.4318,4.4336,4.4354,4.4522,4.4408,4.4418,4.4424,4.4803,4.4808,4.4812,0,0,0,0,0,0,4.3768,4.38,4.4063,4.3945,4.3978,4.4046,4.4117,4.4126,4.4171,4.4243,4.4254,4.4189,4.4316,4.434,4.4466,4.4528,4.4423,4.4432,4.4798,4.4804,4.481,4.4858,0,0,0,0,0,0,4.3758,4.3797,4.3852,4.3946,4.3984,4.4175,4.4121,4.4132,4.419,4.4186,4.4277,4.4289,4.4315,4.4451,4.4476,4.454,4.444,4.4793,4.4801,4.4808,4.4851,4.4865,4.4877,0,0,0,0,0,4.3745,4.3857,4.3855,4.3887,4.4055,4.4178,4.42,4.4231,4.4195,4.425,4.4295,4.4286,4.4517,4.4464,4.4493,4.456,4.4789,4.4799,4.4808,4.4846,4.4863,4.4877,0,0,0,0,0,0,4.3766,4.387,4.3869,4.4015,4.4088,4.4177,4.4247,4.4248,4.433,4.4323,4.4355,4.4375,4.4502,4.4543,4.4482,4.4698,4.4648,4.4663,4.4667,4.4684,4.4696,4.4684,4.4449,0,0,0,0,0,4.3788,4.3882,4.3966,4.4086,4.4124,4.4179,4.4234,4.4252,4.4327,4.4357,4.4413,4.4484,4.4572,4.463,4.4716,4.4857,4.4876,4.4918,4.493,4.4941,4.4954,4.503,4.505,4.4843,4.4843,4.4843,0,0,4.3833,4.3901,4.3958,4.4092,4.4151,4.4245,4.4205,4.4306,4.4376,4.4372,4.4496,4.4538,4.4619,4.4754,4.4816,4.4792,4.5015,4.4953,4.496,4.4968,4.5042,4.5061,4.5079,4.4849,4.4848,4.4847,0,0,4.3964,4.4026,4.4133,4.4193,4.4284,4.432,4.4345,4.4435,4.4464,4.459,4.4588,4.4669,4.4821,4.4879,4.4929,4.508,4.5074,4.5107,4.5174,4.5249,4.5265,4.5279,4.5333,4.5352,4.5119,4.5119,4.512,0,4.4008,4.4153,4.4187,4.429,4.4347,4.4351,4.4458,4.4513,4.4626,4.4664,4.4637,4.4828,4.4883,4.5031,4.5068,4.5108,4.5136,4.5097,4.526,4.5275,4.5289,4.5341,4.5361,4.5123,4.5123,4.5122,4.5122,0,4.4202,4.4303,4.4377,4.449,4.4556,4.466,4.4706,4.4768,4.4779,4.4817,4.4943,4.5009,4.5108,4.5144,4.5155,4.5293,4.5276,4.5254,4.5204,4.5312,4.5361,4.5381,4.5128,4.5127,4.5126,4.5125,0,0,4.4352,4.4482,4.4509,4.456,4.466,4.4736,4.4838,4.4938,4.499,4.5067,4.5152,4.5281,4.5262,4.5318,4.5334,4.54,4.5515,4.537,4.5372,4.5395,4.567,4.5686,4.5708,4.5511,4.5515,4.5518,4.5663,0,4.4493,4.4681,4.4713,4.4875,4.4967,4.497,4.5059,4.5128,4.5166,4.5246,4.5286,4.5377,4.5345,4.5379,4.5443,4.5487,4.5571,4.5477,4.5588,4.5592,4.5569,4.5734,4.5752,4.5886,4.5682,4.5686,4.5688,0,4.4684,4.477,4.4942,4.5029,4.5068,4.5149,4.5242,4.532,4.5397,4.5419,4.5482,4.5491,4.5594,4.5539,4.568,4.5616,4.5663,4.5691,4.5697,4.5709,4.5647,4.575,4.5929,4.5949,4.5718,4.5716,4.5714,0,4.4776,4.4933,4.5057,4.51,4.5205,4.5261,4.5306,4.538,4.5437,4.5517,4.5554,4.5644,4.5693,4.5761,4.5793,4.575,4.5931,4.5879,4.5951,4.595,4.599,4.5987,4.6179,4.6019,4.6019,4.6019,4.6018,0,4.4931,4.5036,4.51,4.5176,4.5292,4.5326,4.544,4.5483,4.5549,4.563,4.5637,4.5713,4.575,4.5831,4.5856,4.5968,4.599,4.6009,4.6015,4.6009,4.6007,4.6041,4.6032,4.6024,4.6023,4.6022,4.6021,0,4.5055,4.5102,4.5236,4.5325,4.5349,4.5431,4.5505,4.5577,4.5614,4.5717,4.5743,4.58,4.5895,4.5933,4.6049,4.6065,4.6195,4.6193,4.617,4.6172,4.6241,4.6234,4.6462,4.6493,4.6313,4.6314,4.6316,0,4.5151,4.5232,4.533,4.5387,4.5436,4.5527,4.5586,4.5622,4.5683,4.5776,4.5836,4.5932,4.601,4.6161,4.6211,4.6298,4.6298,4.6372,4.6311,4.6303,4.6299,4.6295,4.6302,4.6383,4.6385,4.6387,4.6388,0,4.5317,4.5336,4.5424,4.5519,4.5591,4.5666,4.574,4.5785,4.5831,4.5899,4.5998,4.6059,4.6178,4.6272,4.6363,4.6405,4.6404,4.6406,4.6428,4.6423,4.6407,4.6417,4.6201,4.6401,4.64,4.6399,4.6398,4.6398,4.543,4.5502,4.5583,4.5679,4.5739,4.5808,4.588,4.5926,4.6011,4.6113,4.6127,4.6233,4.6305,4.6427,4.6474,4.6554,4.6535,4.6566,4.6574,4.6581,4.6586,4.6394,4.6571,4.657,4.657,4.657,4.657,0,4.5596,4.5649,4.5737,4.5842,4.5917,4.5912,4.5992,4.6055,4.6149,4.6218,4.6296,4.6408,4.65,4.6556,4.6647,4.67,4.6702,4.6723,4.672,4.6729,4.6598,4.6571,4.672,4.672,4.672,4.672,4.672,4.672,4.5692,4.5815,4.5843,4.5993,4.6043,4.615,4.6196,4.6258,4.6314,4.6441,4.6518,4.6555,4.6619,4.6714,4.6796,4.681,4.6843,4.6866,4.6878,4.6754,4.6739,4.6724,4.6698,4.6873,4.6873,4.7003,4.7004,4.7005]}]]